Garden City Regional Airport
KGCK : now visible

Airfield :











YOU CAN JOIN US ON...

 
LOGIN :

Register | Disclaimer

   EN    FR    IT 

 









Legend :    VFR   Marginal VFR   IFR   Intensive IFR   Very Intensive IFR
Visi :
Ceiling :
>= 8 km
>= 3000ft
5 to 8 km
1000 to 3000 ft
1500m to 5 km
500 to 1000 ft
800 to 1500m
200 to 500 ft
< 800m
< 200 ft
Symbols :   Thunderstorms  Fog  Heavy snow  Heavy precipitations  Wind > 20 kt






- Airport Elevation : 2891 ft
- IATA code : GCK


KGCK - Garden City Regional

CURRENT METAR :
  • 301654Z 20010G17KT 10SM CLR 32/18 A3013 RMK AO2 SLP161 T03220183

EXPIRED METARs :
  • 301554Z 18006KT 10SM CLR 30/19 A3014 RMK AO2 SLP165 T03000189
  • 301454Z 18008KT 10SM CLR 28/19 A3015 RMK AO2 SLP170 T02780189 50003

TAF KGCK
Valid from the 30 at 12:00 until the 31 at 12:00 UTC


301120Z 3012/3112 18007KT P6SM SKC
FM301900 18012G21KT P6SM FEW070
FM310200 16009KT P6SM FEW250
FM310700 19010G18KT P6SM FEW250
KZKC FIR / North America



MET'MAP, your aeronautical weather chart ! - Copyright ORBIFLY December 2007 - Disclaimer

ORBIFLY MET'MAP TEAM :

Programming & Development : Alexandra Zaïnal
Concept & original design : Baudouin d'Aumeries
Assistance for programming : Marc-Olivier Méhu
Technical & hardware support : Manuel Goepfert

Contact : metmap@orbifly.com




SOURCES & CREDITS :

   NOAA       Earth
Advisory